When you browse on this site, cookies collect data to enhance your experience and personalize the content and advertising you see.
Visit our Privacy Policy to learn more. By continuing to use the site, you agree to this use of cookies and data.
  • En España
  • Lista de países
  • Para 7 días
  • Temperatura del agua
  • El tiempo en el mapa
  • Informadores
  • user-avatar
    Iniciar sesión

    Tiempo cada hora Graneros

    Hoy, 29 Enero, Miércoles

    Tiempo Temperatura Precipitaciones Viento Presión Humedad
    00:00 +17°C° 0 mm 0 mps 718 mmHg 82%
    01:00 +16°C° 0 mm 0 mps 718 mmHg 84%
    02:00 +16°C° 0.2 mm 0 mps 718 mmHg 85%
    03:00 +16°C° 0.2 mm 0 mps 718 mmHg 86%
    04:00 +15°C° 0.2 mm 0 mps 718 mmHg 87%
    05:00 +17°C° 0.2 mm 0 mps 718 mmHg 80%
    06:00 +18°C° 0.2 mm 0 mps 719 mmHg 74%
    07:00 +22°C° 0.2 mm 1 mps 719 mmHg 68%
    08:00 +24°C° 0 mm 1 mps 720 mmHg 58%
    09:00 +27°C° 0 mm 2 mps 720 mmHg 49%
    10:00 +29°C° 0 mm 2 mps 720 mmHg 39%
    11:00 +31°C° 0 mm 2 mps 720 mmHg 36%
    12:00 +33°C° 0 mm 3 mps 720 mmHg 32%
    13:00 +34°C° 0 mm 3 mps 720 mmHg 28%
    14:00 +34°C° 0 mm 3 mps 720 mmHg 28%
    15:00 +33°C° 0 mm 4 mps 720 mmHg 29%
    16:00 +33°C° 0 mm 4 mps 720 mmHg 29%
    17:00 +29°C° 0 mm 3 mps 720 mmHg 35%
    18:00 +27°C° 0 mm 2 mps 720 mmHg 42%
    19:00 +24°C° 0 mm 2 mps 720 mmHg 48%
    20:00 +22°C° 0 mm 1 mps 720 mmHg 53%
    21:00 +21°C° 0 mm 1 mps 720 mmHg 58%
    22:00 +17°C° 0 mm 0 mps 720 mmHg 64%
    23:00 +17°C° 0 mm 0 mps 720 mmHg 64%

    Mañana, 30 Enero, Jueves

    Tiempo Temperatura Precipitaciones Viento Presión Humedad
    00:00 +17°C° 0 mm 0 mps 720 mmHg 65%
    01:00 +16°C° 0 mm 0 mps 720 mmHg 66%
    02:00 +16°C° 0 mm 0 mps 719 mmHg 64%
    03:00 +16°C° 0 mm 0 mps 719 mmHg 63%
    04:00 +16°C° 0 mm 0 mps 719 mmHg 62%
    05:00 +20°C° 0 mm 1 mps 719 mmHg 54%
    06:00 +23°C° 0 mm 1 mps 720 mmHg 46%
    07:00 +25°C° 0 mm 1 mps 720 mmHg 38%
    08:00 +27°C° 0 mm 1 mps 720 mmHg 33%
    09:00 +30°C° 0 mm 2 mps 720 mmHg 29%
    10:00 +32°C° 0 mm 2 mps 720 mmHg 24%
    11:00 +35°C° 0 mm 3 mps 720 mmHg 22%
    12:00 +36°C° 0 mm 3 mps 720 mmHg 20%
    13:00 +37°C° 0 mm 4 mps 720 mmHg 17%
    14:00 +37°C° 0 mm 4 mps 719 mmHg 17%
    15:00 +37°C° 0 mm 4 mps 719 mmHg 17%
    16:00 +36°C° 0 mm 4 mps 719 mmHg 18%
    17:00 +33°C° 0 mm 3 mps 719 mmHg 25%
    18:00 +28°C° 0 mm 2 mps 719 mmHg 33%
    19:00 +24°C° 0 mm 1 mps 719 mmHg 40%
    20:00 +23°C° 0 mm 1 mps 719 mmHg 44%
    21:00 +21°C° 0 mm 1 mps 719 mmHg 48%
    22:00 +18°C° 0 mm 0 mps 719 mmHg 52%
    23:00 +18°C° 0 mm 0 mps 719 mmHg 53%

    Pasado mañana, 31 Enero, Viernes

    Tiempo Temperatura Precipitaciones Viento Presión Humedad
    00:00 +17°C° 0 mm 0 mps 719 mmHg 53%
    01:00 +17°C° 0 mm 0 mps 719 mmHg 54%
    02:00 +17°C° 0 mm 0 mps 718 mmHg 54%
    03:00 +16°C° 0 mm 0 mps 718 mmHg 53%
    04:00 +16°C° 0 mm 0 mps 718 mmHg 53%
    05:00 +19°C° 0 mm 0 mps 719 mmHg 46%
    06:00 +21°C° 0 mm 0 mps 719 mmHg 39%
    07:00 +23°C° 0 mm 0 mps 719 mmHg 32%
    08:00 +28°C° 0 mm 1 mps 720 mmHg 28%
    09:00 +30°C° 0 mm 1 mps 720 mmHg 24%
    10:00 +34°C° 0 mm 2 mps 720 mmHg 19%
    11:00 +35°C° 0 mm 3 mps 720 mmHg 18%
    12:00 +36°C° 0 mm 3 mps 720 mmHg 16%
    13:00 +37°C° 0 mm 3 mps 720 mmHg 14%
    14:00 +37°C° 0 mm 4 mps 720 mmHg 15%
    15:00 +36°C° 0 mm 4 mps 719 mmHg 16%
    16:00 +35°C° 0 mm 4 mps 719 mmHg 17%
    17:00 +31°C° 0 mm 3 mps 719 mmHg 24%
    18:00 +27°C° 0 mm 2 mps 719 mmHg 31%
    19:00 +24°C° 0 mm 1 mps 720 mmHg 38%
    20:00 +22°C° 0 mm 1 mps 720 mmHg 42%
    21:00 +19°C° 0 mm 0 mps 719 mmHg 47%
    22:00 +18°C° 0 mm 0 mps 719 mmHg 51%
    23:00 +17°C° 0 mm 0 mps 719 mmHg 53%

    1 Febrero, Sábado

    Tiempo Temperatura Precipitaciones Viento Presión Humedad
    00:00 +17°C° 0 mm 0 mps 719 mmHg 55%
    01:00 +16°C° 0 mm 0 mps 718 mmHg 57%
    02:00 +16°C° 0 mm 0 mps 718 mmHg 58%
    03:00 +16°C° 0 mm 0 mps 718 mmHg 58%
    04:00 +15°C° 0 mm 0 mps 718 mmHg 59%
    05:00 +18°C° 0 mm 0 mps 718 mmHg 51%
    06:00 +20°C° 0 mm 0 mps 719 mmHg 44%
    07:00 +22°C° 0 mm 0 mps 720 mmHg 37%
    08:00 +27°C° 0 mm 1 mps 719 mmHg 32%
    09:00 +29°C° 0 mm 2 mps 719 mmHg 28%
    10:00 +31°C° 0 mm 2 mps 719 mmHg 23%
    11:00 +34°C° 0 mm 3 mps 719 mmHg 21%
    12:00 +35°C° 0 mm 3 mps 719 mmHg 19%
    13:00 +36°C° 0 mm 3 mps 719 mmHg 17%
    14:00 +35°C° 0 mm 4 mps 719 mmHg 20%
    15:00 +34°C° 0 mm 4 mps 719 mmHg 23%
    16:00 +33°C° 0 mm 5 mps 719 mmHg 25%
    17:00 +29°C° 0 mm 3 mps 719 mmHg 33%
    18:00 +26°C° 0 mm 2 mps 719 mmHg 41%
    19:00 +22°C° 0 mm 1 mps 719 mmHg 49%
    20:00 +21°C° 0 mm 1 mps 719 mmHg 54%
    21:00 +18°C° 0 mm 0 mps 719 mmHg 59%
    22:00 +17°C° 0 mm 0 mps 719 mmHg 64%
    23:00 +16°C° 0 mm 0 mps 718 mmHg 63%

    2 Febrero, Domingo

    Tiempo Temperatura Precipitaciones Viento Presión Humedad
    00:00 +16°C° 0 mm 0 mps 718 mmHg 63%
    01:00 +16°C° 0 mm 0 mps 718 mmHg 62%
    02:00 +16°C° 0 mm 0 mps 718 mmHg 62%
    03:00 +16°C° 0 mm 0 mps 717 mmHg 62%
    04:00 +15°C° 0 mm 0 mps 717 mmHg 62%
    05:00 +18°C° 0 mm 0 mps 718 mmHg 55%
    06:00 +20°C° 0 mm 0 mps 718 mmHg 48%
    07:00 +22°C° 0 mm 0 mps 719 mmHg 41%
    08:00 +27°C° 0 mm 1 mps 719 mmHg 36%
    09:00 +29°C° 0 mm 2 mps 719 mmHg 32%
    10:00 +31°C° 0 mm 2 mps 719 mmHg 27%
    11:00 +33°C° 0 mm 3 mps 719 mmHg 25%
    12:00 +34°C° 0 mm 3 mps 720 mmHg 23%
    13:00 +36°C° 0 mm 4 mps 720 mmHg 20%
    14:00 +35°C° 0 mm 4 mps 719 mmHg 22%
    15:00 +34°C° 0 mm 5 mps 719 mmHg 23%
    16:00 +34°C° 0 mm 5 mps 719 mmHg 24%
    17:00 +29°C° 0 mm 4 mps 719 mmHg 33%
    18:00 +26°C° 0 mm 3 mps 719 mmHg 42%
    19:00 +22°C° 0 mm 1 mps 720 mmHg 51%
    20:00 +21°C° 0 mm 1 mps 719 mmHg 56%
    21:00 +19°C° 0 mm 1 mps 719 mmHg 60%
    22:00 +16°C° 0 mm 0 mps 719 mmHg 65%
    23:00 +16°C° 0 mm 0 mps 719 mmHg 67%

    3 Febrero, Lunes

    Tiempo Temperatura Precipitaciones Viento Presión Humedad
    00:00 +15°C° 0 mm 0 mps 719 mmHg 69%
    01:00 +14°C° 0 mm 0 mps 718 mmHg 71%
    02:00 +14°C° 0 mm 0 mps 718 mmHg 72%
    03:00 +14°C° 0 mm 0 mps 718 mmHg 73%
    04:00 +14°C° 0 mm 0 mps 718 mmHg 74%
    05:00 +16°C° 0 mm 0 mps 718 mmHg 66%
    06:00 +20°C° 0 mm 1 mps 719 mmHg 58%
    07:00 +22°C° 0 mm 1 mps 719 mmHg 49%
    08:00 +24°C° 0 mm 1 mps 719 mmHg 44%
    09:00 +26°C° 0 mm 2 mps 719 mmHg 39%
    10:00 +28°C° 0 mm 3 mps 719 mmHg 34%
    11:00 +29°C° 0 mm 3 mps 719 mmHg 31%
    12:00 +32°C° 0 mm 4 mps 719 mmHg 28%
    13:00 +33°C° 0 mm 4 mps 719 mmHg 25%
    14:00 +32°C° 0 mm 5 mps 720 mmHg 27%
    15:00 +29°C° 0 mm 5 mps 720 mmHg 30%
    16:00 +28°C° 0 mm 5 mps 720 mmHg 33%
    17:00 +26°C° 0 mm 4 mps 720 mmHg 43%
    18:00 +22°C° 0 mm 3 mps 720 mmHg 53%
    19:00 +19°C° 0 mm 2 mps 720 mmHg 64%
    20:00 +18°C° 0 mm 2 mps 720 mmHg 69%
    21:00 +18°C° 0 mm 1 mps 720 mmHg 74%
    22:00 +16°C° 0 mm 1 mps 721 mmHg 79%
    23:00 +15°C° 0 mm 1 mps 720 mmHg 82%
    Mostrar más